owner,sensor,date,latitude,longitude,vertical_datum,direction_of_sea_water_velocity,sea_water_speed,upward_sea_water_velocity,qcFlag 
TABS,ioos:station:wmo:42045:1,1999-08-01T00:00:00Z,26.2168,-96.4998,2.0,6.757489276,68.41524757,-99999.0,'11111222,11111222,99999999' 
TABS,ioos:station:wmo:42045:1,1999-08-01T00:30:00Z,26.2168,-96.4998,2.0,8.3161144,71.07733324,-99999.0,'11111222,11111222,99999999' 
TABS,ioos:station:wmo:42045:1,1999-08-01T01:00:00Z,26.2168,-96.4998,2.0,6.735885498,69.91255181,-99999.0,'11111222,11111222,99999999' 
TABS,ioos:station:wmo:42045:1,1999-08-01T01:30:00Z,26.2168,-96.4998,2.0,9.664733526,56.8265079,-99999.0,'11111222,11111222,99999999' 
TABS,ioos:station:wmo:42045:1,1999-08-01T02:00:00Z,26.2168,-96.4998,2.0,5.946675841,61.87293188,-99999.0,'11111222,11111222,99999999' 
TABS,ioos:station:wmo:42045:1,1999-08-01T02:30:00Z,26.2168,-96.4998,2.0,1.446860792,59.01881141,-99999.0,'11111222,11111222,99999999' 
TABS,ioos:station:wmo:42045:1,1999-08-01T03:00:00Z,26.2168,-96.4998,2.0,358.7057231,59.31513803,-99999.0,'11111222,11111222,99999999' 
TABS,ioos:station:wmo:42045:1,1999-08-01T03:30:00Z,26.2168,-96.4998,2.0,357.909646,61.13068787,-99999.0,'11111222,11111222,99999999' 
TABS,ioos:station:wmo:42045:1,1999-08-01T04:00:00Z,26.2168,-96.4998,2.0,356.6538195,63.72866545,-99999.0,'11111222,11111222,99999999' 
TABS,ioos:station:wmo:42045:1,1999-08-01T04:30:00Z,26.2168,-96.4998,2.0,357.7598502,64.71947002,-99999.0,'11111222,11111222,99999999' 
TABS,ioos:station:wmo:42045:1,1999-08-01T05:00:00Z,26.2168,-96.4998,2.0,359.4794342,66.0127268,-99999.0,'11111222,11144222,99999999' 
TABS,ioos:station:wmo:42045:1,1999-08-01T05:30:00Z,26.2168,-96.4998,2.0,359.7362176,65.11069113,-99999.0,'11111222,11144222,99999999' 
TABS,ioos:station:wmo:42045:1,1999-08-01T06:00:00Z,26.2168,-96.4998,2.0,5.184892613,69.27342708,-99999.0,'11111222,11111222,99999999' 
TABS,ioos:station:wmo:42045:1,1999-08-01T06:30:00Z,26.2168,-96.4998,2.0,7.214051367,71.19354254,-99999.0,'11111222,11111222,99999999' 
TABS,ioos:station:wmo:42045:1,1999-08-01T07:00:00Z,26.2168,-96.4998,2.0,9.062702741,70.91522968,-99999.0,'11111222,11111222,99999999' 
TABS,ioos:station:wmo:42045:1,1999-08-01T07:30:00Z,26.2168,-96.4998,2.0,6.896278527,68.29407002,-99999.0,'11111222,11111222,99999999' 
TABS,ioos:station:wmo:42045:1,1999-08-01T08:00:00Z,26.2168,-96.4998,2.0,12.4365711,72.62407314,-99999.0,'11111222,11111222,99999999' 
TABS,ioos:station:wmo:42045:1,1999-08-01T08:30:00Z,26.2168,-96.4998,2.0,10.46871094,75.45597458,-99999.0,'11111222,11111222,99999999' 
TABS,ioos:station:wmo:42045:1,1999-08-01T09:00:00Z,26.2168,-96.4998,2.0,16.6477606,75.4317241,-99999.0,'11111222,11111222,99999999' 
TABS,ioos:station:wmo:42045:1,1999-08-01T09:30:00Z,26.2168,-96.4998,2.0,14.88802301,75.39082504,-99999.0,'11111222,11111222,99999999' 
TABS,ioos:station:wmo:42045:1,1999-08-01T10:00:00Z,26.2168,-96.4998,2.0,14.49424088,76.79408115,-99999.0,'11111222,11111222,99999999' 
TABS,ioos:station:wmo:42045:1,1999-08-01T10:30:00Z,26.2168,-96.4998,2.0,13.5179475,75.85127158,-99999.0,'11111222,11111222,99999999' 
TABS,ioos:station:wmo:42045:1,1999-08-01T11:00:00Z,26.2168,-96.4998,2.0,10.56416511,73.96362417,-99999.0,'11111222,11111222,99999999' 
TABS,ioos:station:wmo:42045:1,1999-08-01T11:30:00Z,26.2168,-96.4998,2.0,9.276335255,74.87920205,-99999.0,'11111222,11111222,99999999' 
TABS,ioos:station:wmo:42045:1,1999-08-01T12:00:00Z,26.2168,-96.4998,2.0,6.707219106,71.40869695,-99999.0,'11111222,11111222,99999999' 
TABS,ioos:station:wmo:42045:1,1999-08-01T12:30:00Z,26.2168,-96.4998,2.0,10.85343041,65.69510865,-99999.0,'11111222,11111222,99999999' 
TABS,ioos:station:wmo:42045:1,1999-08-01T13:00:00Z,26.2168,-96.4998,2.0,9.082865214,77.41060651,-99999.0,'11111222,11111222,99999999' 
TABS,ioos:station:wmo:42045:1,1999-08-01T13:30:00Z,26.2168,-96.4998,2.0,8.847832842,75.54897021,-99999.0,'11111222,11111222,99999999' 
TABS,ioos:station:wmo:42045:1,1999-08-01T14:00:00Z,26.2168,-96.4998,2.0,9.443861891,80.81525846,-99999.0,'11111222,11111222,99999999' 
TABS,ioos:station:wmo:42045:1,1999-08-01T14:30:00Z,26.2168,-96.4998,2.0,8.493072694,83.75847718,-99999.0,'11111222,11111222,99999999' 
TABS,ioos:station:wmo:42045:1,1999-08-01T15:00:00Z,26.2168,-96.4998,2.0,10.44238866,84.69265966,-99999.0,'11111222,11111222,99999999' 
TABS,ioos:station:wmo:42045:1,1999-08-01T15:30:00Z,26.2168,-96.4998,2.0,12.55276269,83.64947639,-99999.0,'11111222,11111222,99999999' 
TABS,ioos:station:wmo:42045:1,1999-08-01T16:00:00Z,26.2168,-96.4998,2.0,13.38204696,82.39715104,-99999.0,'11111222,11111222,99999999' 
TABS,ioos:station:wmo:42045:1,1999-08-01T16:30:00Z,26.2168,-96.4998,2.0,11.87735363,79.63489813,-99999.0,'11111222,11111222,99999999' 
TABS,ioos:station:wmo:42045:1,1999-08-01T17:00:00Z,26.2168,-96.4998,2.0,8.643813365,77.31816087,-99999.0,'11111222,11111222,99999999' 
TABS,ioos:station:wmo:42045:1,1999-08-01T17:30:00Z,26.2168,-96.4998,2.0,10.82457179,72.20470899,-99999.0,'11111222,11111222,99999999' 
TABS,ioos:station:wmo:42045:1,1999-08-01T18:00:00Z,26.2168,-96.4998,2.0,19.74700089,61.74068108,-99999.0,'11111222,11111222,99999999' 
TABS,ioos:station:wmo:42045:1,1999-08-01T18:30:00Z,26.2168,-96.4998,2.0,9.013993184,84.63519185,-99999.0,'11111222,11111222,99999999' 
TABS,ioos:station:wmo:42045:1,1999-08-01T19:00:00Z,26.2168,-96.4998,2.0,4.877327692,87.62727087,-99999.0,'11111222,11111222,99999999' 
TABS,ioos:station:wmo:42045:1,1999-08-01T19:30:00Z,26.2168,-96.4998,2.0,3.812933098,85.11839108,-99999.0,'11111222,11111222,99999999' 
TABS,ioos:station:wmo:42045:1,1999-08-01T20:00:00Z,26.2168,-96.4998,2.0,4.200936169,85.45958401,-99999.0,'11111222,11111222,99999999' 
TABS,ioos:station:wmo:42045:1,1999-08-01T20:30:00Z,26.2168,-96.4998,2.0,2.55751922,83.37303221,-99999.0,'11111222,11111222,99999999' 
TABS,ioos:station:wmo:42045:1,1999-08-01T21:00:00Z,26.2168,-96.4998,2.0,2.247289701,83.65432744,-99999.0,'11111222,11111222,99999999' 
TABS,ioos:station:wmo:42045:1,1999-08-01T21:30:00Z,26.2168,-96.4998,2.0,2.125259961,80.36526924,-99999.0,'11111222,11111222,99999999' 
TABS,ioos:station:wmo:42045:1,1999-08-01T22:00:00Z,26.2168,-96.4998,2.0,3.325342413,82.23845147,-99999.0,'11111222,11111222,99999999' 
TABS,ioos:station:wmo:42045:1,1999-08-01T22:30:00Z,26.2168,-96.4998,2.0,5.040999451,81.37472642,-99999.0,'11111222,11111222,99999999' 
TABS,ioos:station:wmo:42045:1,1999-08-01T23:00:00Z,26.2168,-96.4998,2.0,10.09238124,75.6708504,-99999.0,'11111222,11111222,99999999' 
TABS,ioos:station:wmo:42045:1,1999-08-01T23:30:00Z,26.2168,-96.4998,2.0,7.715315696,73.22282772,-99999.0,'11111222,11111222,99999999' 
TABS,ioos:station:wmo:42045:1,1999-08-02T00:00:00Z,26.2168,-96.4998,2.0,8.831425446,73.7341305,-99999.0,'11111222,11111222,99999999' 
TABS,ioos:station:wmo:42045:1,1999-08-02T00:30:00Z,26.2168,-96.4998,2.0,7.395648498,65.95868555,-99999.0,'11111222,11111222,99999999' 
TABS,ioos:station:wmo:42045:1,1999-08-02T01:00:00Z,26.2168,-96.4998,2.0,2.007708114,63.65907084,-99999.0,'11111222,11111222,99999999' 
TABS,ioos:station:wmo:42045:1,1999-08-02T01:30:00Z,26.2168,-96.4998,2.0,2.946803796,55.05278649,-99999.0,'11111222,11111222,99999999' 
TABS,ioos:station:wmo:42045:1,1999-08-02T02:00:00Z,26.2168,-96.4998,2.0,356.2568703,59.27646582,-99999.0,'11111222,11111222,99999999' 
TABS,ioos:station:wmo:42045:1,1999-08-02T02:30:00Z,26.2168,-96.4998,2.0,354.4044495,59.58394163,-99999.0,'11111222,11111222,99999999' 
TABS,ioos:station:wmo:42045:1,1999-08-02T03:00:00Z,26.2168,-96.4998,2.0,351.6963289,62.93986416,-99999.0,'11111222,11111222,99999999' 
TABS,ioos:station:wmo:42045:1,1999-08-02T03:30:00Z,26.2168,-96.4998,2.0,346.8767396,63.6421472,-99999.0,'11111222,11111222,99999999' 
TABS,ioos:station:wmo:42045:1,1999-08-02T04:00:00Z,26.2168,-96.4998,2.0,346.7211669,65.52186963,-99999.0,'11111222,11111222,99999999' 
TABS,ioos:station:wmo:42045:1,1999-08-02T04:30:00Z,26.2168,-96.4998,2.0,346.6301734,65.08398344,-99999.0,'11111222,11111222,99999999' 
TABS,ioos:station:wmo:42045:1,1999-08-02T05:00:00Z,26.2168,-96.4998,2.0,344.973582,66.64904575,-99999.0,'11111222,11111222,99999999' 
TABS,ioos:station:wmo:42045:1,1999-08-02T05:30:00Z,26.2168,-96.4998,2.0,348.9850831,68.61409913,-99999.0,'11111222,11111222,99999999' 
TABS,ioos:station:wmo:42045:1,1999-08-02T06:00:00Z,26.2168,-96.4998,2.0,348.7149012,68.52494509,-99999.0,'11111222,11111222,99999999' 
TABS,ioos:station:wmo:42045:1,1999-08-02T06:30:00Z,26.2168,-96.4998,2.0,352.4983753,67.32626976,-99999.0,'11111222,11111222,99999999' 
TABS,ioos:station:wmo:42045:1,1999-08-02T07:00:00Z,26.2168,-96.4998,2.0,353.5907677,69.42393391,-99999.0,'11111222,11111222,99999999' 
TABS,ioos:station:wmo:42045:1,1999-08-02T07:30:00Z,26.2168,-96.4998,2.0,351.9245521,69.97390442,-99999.0,'11111222,11111222,99999999' 
TABS,ioos:station:wmo:42045:1,1999-08-02T08:00:00Z,26.2168,-96.4998,2.0,355.7667402,72.60811043,-99999.0,'11111222,11111222,99999999' 
TABS,ioos:station:wmo:42045:1,1999-08-02T08:30:00Z,26.2168,-96.4998,2.0,359.8848503,74.50015101,-99999.0,'11111222,11144222,99999999' 
TABS,ioos:station:wmo:42045:1,1999-08-02T09:00:00Z,26.2168,-96.4998,2.0,0.000210459,75.99,-99999.0,'11111222,11111222,99999999' 
TABS,ioos:station:wmo:42045:1,1999-08-02T09:30:00Z,26.2168,-96.4998,2.0,2.707483314,78.7579031,-99999.0,'11111222,11111222,99999999' 
TABS,ioos:station:wmo:42045:1,1999-08-02T10:00:00Z,26.2168,-96.4998,2.0,5.087828507,80.62765406,-99999.0,'11111222,11111222,99999999' 
TABS,ioos:station:wmo:42045:1,1999-08-02T10:30:00Z,26.2168,-96.4998,2.0,10.42638177,81.50575501,-99999.0,'11111222,11111222,99999999' 
TABS,ioos:station:wmo:42045:1,1999-08-02T11:00:00Z,26.2168,-96.4998,2.0,13.46999891,79.98003063,-99999.0,'11111222,11111222,99999999' 
TABS,ioos:station:wmo:42045:1,1999-08-02T11:30:00Z,26.2168,-96.4998,2.0,14.81881844,76.90794107,-99999.0,'11111222,11111222,99999999' 
TABS,ioos:station:wmo:42045:1,1999-08-02T12:00:00Z,26.2168,-96.4998,2.0,17.16078756,74.22436527,-99999.0,'11111222,11111222,99999999' 
TABS,ioos:station:wmo:42045:1,1999-08-02T12:30:00Z,26.2168,-96.4998,2.0,19.59048566,74.65125451,-99999.0,'11111222,11111222,99999999' 
TABS,ioos:station:wmo:42045:1,1999-08-02T13:00:00Z,26.2168,-96.4998,2.0,15.54842652,71.14349232,-99999.0,'11111222,11111222,99999999' 
TABS,ioos:station:wmo:42045:1,1999-08-02T13:30:00Z,26.2168,-96.4998,2.0,11.82040331,72.00689481,-99999.0,'11111222,11111222,99999999' 
TABS,ioos:station:wmo:42045:1,1999-08-02T14:00:00Z,26.2168,-96.4998,2.0,22.50569572,79.02861887,-99999.0,'11111222,11111222,99999999' 
TABS,ioos:station:wmo:42045:1,1999-08-02T14:30:00Z,26.2168,-96.4998,2.0,24.53300179,78.94707594,-99999.0,'11111222,11111222,99999999' 
TABS,ioos:station:wmo:42045:1,1999-08-02T15:00:00Z,26.2168,-96.4998,2.0,17.33094858,73.51763326,-99999.0,'11111222,11111222,99999999' 
TABS,ioos:station:wmo:42045:1,1999-08-02T15:30:00Z,26.2168,-96.4998,2.0,22.03621372,73.45612092,-99999.0,'11111222,11111222,99999999' 
TABS,ioos:station:wmo:42045:1,1999-08-02T16:00:00Z,26.2168,-96.4998,2.0,26.7665114,75.09657049,-99999.0,'11111222,11111222,99999999' 
TABS,ioos:station:wmo:42045:1,1999-08-02T16:30:00Z,26.2168,-96.4998,2.0,22.44661866,71.42109632,-99999.0,'11111222,11111222,99999999' 
TABS,ioos:station:wmo:42045:1,1999-08-02T17:00:00Z,26.2168,-96.4998,2.0,23.23157338,68.75468566,-99999.0,'11111222,11111222,99999999' 
TABS,ioos:station:wmo:42045:1,1999-08-02T17:30:00Z,26.2168,-96.4998,2.0,26.17467292,68.23743547,-99999.0,'11111222,11111222,99999999' 
TABS,ioos:station:wmo:42045:1,1999-08-02T18:00:00Z,26.2168,-96.4998,2.0,24.63297931,63.26750351,-99999.0,'11111222,11111222,99999999' 
TABS,ioos:station:wmo:42045:1,1999-08-02T18:30:00Z,26.2168,-96.4998,2.0,24.50937787,63.20513033,-99999.0,'11111222,11111222,99999999' 
TABS,ioos:station:wmo:42045:1,1999-08-02T19:00:00Z,26.2168,-96.4998,2.0,24.44255888,61.21635239,-99999.0,'11111222,11111222,99999999' 
TABS,ioos:station:wmo:42045:1,1999-08-02T19:30:00Z,26.2168,-96.4998,2.0,21.38113871,60.48259998,-99999.0,'11111222,11111222,99999999' 
TABS,ioos:station:wmo:42045:1,1999-08-02T20:00:00Z,26.2168,-96.4998,2.0,19.83406958,59.71211351,-99999.0,'11111222,11111222,99999999' 
TABS,ioos:station:wmo:42045:1,1999-08-02T20:30:00Z,26.2168,-96.4998,2.0,21.74405671,55.49879368,-99999.0,'11111222,11111222,99999999' 
TABS,ioos:station:wmo:42045:1,1999-08-02T21:00:00Z,26.2168,-96.4998,2.0,17.38746454,51.36713833,-99999.0,'11111222,11111222,99999999' 
TABS,ioos:station:wmo:42045:1,1999-08-02T21:30:00Z,26.2168,-96.4998,2.0,8.239316161,46.8232816,-99999.0,'11111222,11111222,99999999' 
TABS,ioos:station:wmo:42045:1,1999-08-02T22:00:00Z,26.2168,-96.4998,2.0,356.1966452,47.18393053,-99999.0,'11111222,11111222,99999999' 
TABS,ioos:station:wmo:42045:1,1999-08-02T22:30:00Z,26.2168,-96.4998,2.0,2.695245854,44.4491631,-99999.0,'11111222,11111222,99999999' 
TABS,ioos:station:wmo:42045:1,1999-08-02T23:00:00Z,26.2168,-96.4998,2.0,2.759788171,43.41034093,-99999.0,'11111222,11111222,99999999' 
TABS,ioos:station:wmo:42045:1,1999-08-02T23:30:00Z,26.2168,-96.4998,2.0,356.5054857,46.42633412,-99999.0,'11111222,11111222,99999999' 
TABS,ioos:station:wmo:42045:1,1999-08-03T00:00:00Z,26.2168,-96.4998,2.0,353.5148882,51.4391699,-99999.0,'11111222,11111222,99999999' 
TABS,ioos:station:wmo:42045:1,1999-08-03T00:30:00Z,26.2168,-96.4998,2.0,350.566501,52.71289785,-99999.0,'11111222,11111222,99999999' 
TABS,ioos:station:wmo:42045:1,1999-08-03T01:00:00Z,26.2168,-96.4998,2.0,347.5854454,56.14279829,-99999.0,'11111222,11111222,99999999' 
TABS,ioos:station:wmo:42045:1,1999-08-03T01:30:00Z,26.2168,-96.4998,2.0,344.992639,55.22359641,-99999.0,'11111222,11111222,99999999' 
TABS,ioos:station:wmo:42045:1,1999-08-03T02:00:00Z,26.2168,-96.4998,2.0,340.8627531,57.25417889,-99999.0,'11111222,11111222,99999999' 
TABS,ioos:station:wmo:42045:1,1999-08-03T02:30:00Z,26.2168,-96.4998,2.0,336.03391,60.16738319,-99999.0,'11111222,11111222,99999999' 
TABS,ioos:station:wmo:42045:1,1999-08-03T03:00:00Z,26.2168,-96.4998,2.0,338.7918517,58.49159341,-99999.0,'11111222,11111222,99999999' 
TABS,ioos:station:wmo:42045:1,1999-08-03T03:30:00Z,26.2168,-96.4998,2.0,343.0886505,58.40577454,-99999.0,'11111222,11111222,99999999' 
TABS,ioos:station:wmo:42045:1,1999-08-03T04:00:00Z,26.2168,-96.4998,2.0,341.8793924,59.41692772,-99999.0,'11111222,11111222,99999999' 
TABS,ioos:station:wmo:42045:1,1999-08-03T04:30:00Z,26.2168,-96.4998,2.0,342.6451737,64.93625567,-99999.0,'11111222,11111222,99999999' 
TABS,ioos:station:wmo:42045:1,1999-08-03T05:00:00Z,26.2168,-96.4998,2.0,348.8942357,72.73209058,-99999.0,'11111222,11111222,99999999' 
TABS,ioos:station:wmo:42045:1,1999-08-03T05:30:00Z,26.2168,-96.4998,2.0,343.2052229,77.34936975,-99999.0,'11111222,11111222,99999999' 
TABS,ioos:station:wmo:42045:1,1999-08-03T06:00:00Z,26.2168,-96.4998,2.0,346.1394735,83.94439886,-99999.0,'11111222,11111222,99999999' 
TABS,ioos:station:wmo:42045:1,1999-08-03T06:30:00Z,26.2168,-96.4998,2.0,349.2168728,85.99859592,-99999.0,'11111222,11111222,99999999' 
TABS,ioos:station:wmo:42045:1,1999-08-03T07:00:00Z,26.2168,-96.4998,2.0,351.2620539,87.28310547,-99999.0,'11111222,11111222,99999999' 
TABS,ioos:station:wmo:42045:1,1999-08-03T07:30:00Z,26.2168,-96.4998,2.0,359.0563495,90.45227305,-99999.0,'11111222,11144222,99999999' 
TABS,ioos:station:wmo:42045:1,1999-08-03T08:00:00Z,26.2168,-96.4998,2.0,0.467455751,90.74301736,-99999.0,'11111222,11111222,99999999' 
TABS,ioos:station:wmo:42045:1,1999-08-03T08:30:00Z,26.2168,-96.4998,2.0,0.199452656,86.27052162,-99999.0,'11111222,11111222,99999999' 
TABS,ioos:station:wmo:42045:1,1999-08-03T09:00:00Z,26.2168,-96.4998,2.0,5.557429673,89.21933423,-99999.0,'11111222,11111222,99999999' 
TABS,ioos:station:wmo:42045:1,1999-08-03T09:30:00Z,26.2168,-96.4998,2.0,9.038958222,90.0684462,-99999.0,'11111222,11111222,99999999' 
TABS,ioos:station:wmo:42045:1,1999-08-03T10:00:00Z,26.2168,-96.4998,2.0,10.58824705,92.46432934,-99999.0,'11111222,11111222,99999999' 
TABS,ioos:station:wmo:42045:1,1999-08-03T10:30:00Z,26.2168,-96.4998,2.0,356.3266345,85.99670052,-99999.0,'11111222,11111222,99999999' 
TABS,ioos:station:wmo:42045:1,1999-08-03T11:00:00Z,26.2168,-96.4998,2.0,356.4811833,87.32465402,-99999.0,'11111222,11111222,99999999' 
TABS,ioos:station:wmo:42045:1,1999-08-03T11:30:00Z,26.2168,-96.4998,2.0,0.295512396,87.31115965,-99999.0,'11111222,11111222,99999999' 
TABS,ioos:station:wmo:42045:1,1999-08-03T12:00:00Z,26.2168,-96.4998,2.0,1.55365418,87.79226617,-99999.0,'11111222,11111222,99999999' 
TABS,ioos:station:wmo:42045:1,1999-08-03T12:30:00Z,26.2168,-96.4998,2.0,2.682105759,85.91410129,-99999.0,'11111222,11111222,99999999' 
TABS,ioos:station:wmo:42045:1,1999-08-03T13:00:00Z,26.2168,-96.4998,2.0,4.57284739,89.68546426,-99999.0,'11111222,11111222,99999999' 
TABS,ioos:station:wmo:42045:1,1999-08-03T13:30:00Z,26.2168,-96.4998,2.0,5.294517827,87.24218819,-99999.0,'11111222,11111222,99999999' 
TABS,ioos:station:wmo:42045:1,1999-08-03T14:00:00Z,26.2168,-96.4998,2.0,7.782577145,86.92058042,-99999.0,'11111222,11111222,99999999' 
TABS,ioos:station:wmo:42045:1,1999-08-03T14:30:00Z,26.2168,-96.4998,2.0,11.59905678,85.94506676,-99999.0,'11111222,11111222,99999999' 
TABS,ioos:station:wmo:42045:1,1999-08-03T15:00:00Z,26.2168,-96.4998,2.0,14.7294731,83.8143168,-99999.0,'11111222,11111222,99999999' 
TABS,ioos:station:wmo:42045:1,1999-08-03T15:30:00Z,26.2168,-96.4998,2.0,36.05784427,86.06864702,-99999.0,'11111222,11111222,99999999' 
TABS,ioos:station:wmo:42045:1,1999-08-03T16:00:00Z,26.2168,-96.4998,2.0,38.62417271,82.58470137,-99999.0,'11111222,11111222,99999999' 
TABS,ioos:station:wmo:42045:1,1999-08-03T16:30:00Z,26.2168,-96.4998,2.0,40.67453388,78.18830859,-99999.0,'11111222,11111222,99999999' 
TABS,ioos:station:wmo:42045:1,1999-08-03T17:00:00Z,26.2168,-96.4998,2.0,43.52784124,77.88523929,-99999.0,'11111222,11111222,99999999' 
TABS,ioos:station:wmo:42045:1,1999-08-03T17:30:00Z,26.2168,-96.4998,2.0,43.51571371,77.24905501,-99999.0,'11111222,11111222,99999999' 
TABS,ioos:station:wmo:42045:1,1999-08-03T18:00:00Z,26.2168,-96.4998,2.0,45.72207879,75.75836389,-99999.0,'11111222,11111222,99999999' 
TABS,ioos:station:wmo:42045:1,1999-08-03T18:30:00Z,26.2168,-96.4998,2.0,47.16212744,72.53715255,-99999.0,'11111222,11111222,99999999' 
TABS,ioos:station:wmo:42045:1,1999-08-03T19:00:00Z,26.2168,-96.4998,2.0,48.47031246,67.87235151,-99999.0,'11111222,11111222,99999999' 
TABS,ioos:station:wmo:42045:1,1999-08-03T19:30:00Z,26.2168,-96.4998,2.0,49.15691355,62.43205747,-99999.0,'11111222,11111222,99999999' 
TABS,ioos:station:wmo:42045:1,1999-08-03T20:00:00Z,26.2168,-96.4998,2.0,48.87557199,56.18082324,-99999.0,'11111222,11111222,99999999' 
TABS,ioos:station:wmo:42045:1,1999-08-03T20:30:00Z,26.2168,-96.4998,2.0,44.29591303,51.20546943,-99999.0,'11111222,11111222,99999999' 
TABS,ioos:station:wmo:42045:1,1999-08-03T21:00:00Z,26.2168,-96.4998,2.0,35.75276357,44.61848272,-99999.0,'11111222,11111222,99999999' 
TABS,ioos:station:wmo:42045:1,1999-08-03T21:30:00Z,26.2168,-96.4998,2.0,25.3662724,38.2585546,-99999.0,'11111222,11111222,99999999' 
TABS,ioos:station:wmo:42045:1,1999-08-03T22:00:00Z,26.2168,-96.4998,2.0,10.06742325,37.52780436,-99999.0,'11111222,11111222,99999999' 
TABS,ioos:station:wmo:42045:1,1999-08-03T22:30:00Z,26.2168,-96.4998,2.0,338.6613043,27.83849493,-99999.0,'11111222,11111222,99999999' 
TABS,ioos:station:wmo:42045:1,1999-08-03T23:00:00Z,26.2168,-96.4998,2.0,329.5198207,37.00385115,-99999.0,'11111222,11111222,99999999' 
TABS,ioos:station:wmo:42045:1,1999-08-03T23:30:00Z,26.2168,-96.4998,2.0,331.1098017,44.41805601,-99999.0,'11111222,11111222,99999999' 
TABS,ioos:station:wmo:42045:1,1999-08-04T00:00:00Z,26.2168,-96.4998,2.0,327.1465492,50.54411934,-99999.0,'11111222,11111222,99999999' 
TABS,ioos:station:wmo:42045:1,1999-08-04T00:30:00Z,26.2168,-96.4998,2.0,331.0252989,53.81608774,-99999.0,'11111222,11111222,99999999' 
TABS,ioos:station:wmo:42045:1,1999-08-04T01:00:00Z,26.2168,-96.4998,2.0,334.1014718,57.30535228,-99999.0,'11111222,11111222,99999999' 
TABS,ioos:station:wmo:42045:1,1999-08-04T01:30:00Z,26.2168,-96.4998,2.0,334.1425391,59.77465182,-99999.0,'11111222,11111222,99999999' 
TABS,ioos:station:wmo:42045:1,1999-08-04T02:00:00Z,26.2168,-96.4998,2.0,334.4711887,62.57988335,-99999.0,'11111222,11111222,99999999' 
TABS,ioos:station:wmo:42045:1,1999-08-04T02:30:00Z,26.2168,-96.4998,2.0,334.0873647,64.43870886,-99999.0,'11111222,11111222,99999999' 
TABS,ioos:station:wmo:42045:1,1999-08-04T03:00:00Z,26.2168,-96.4998,2.0,341.0918852,68.50675952,-99999.0,'11111222,11111222,99999999' 
TABS,ioos:station:wmo:42045:1,1999-08-04T03:30:00Z,26.2168,-96.4998,2.0,343.7047,73.27361394,-99999.0,'11111222,11111222,99999999' 
TABS,ioos:station:wmo:42045:1,1999-08-04T04:00:00Z,26.2168,-96.4998,2.0,346.4617758,75.09671431,-99999.0,'11111222,11111222,99999999' 
TABS,ioos:station:wmo:42045:1,1999-08-04T04:30:00Z,26.2168,-96.4998,2.0,346.703009,75.78170887,-99999.0,'11111222,11111222,99999999' 
TABS,ioos:station:wmo:42045:1,1999-08-04T05:00:00Z,26.2168,-96.4998,2.0,345.3493054,77.768673,-99999.0,'11111222,11111222,99999999' 
TABS,ioos:station:wmo:42045:1,1999-08-04T05:30:00Z,26.2168,-96.4998,2.0,349.5836934,80.7508291,-99999.0,'11111222,11111222,99999999' 
TABS,ioos:station:wmo:42045:1,1999-08-04T06:00:00Z,26.2168,-96.4998,2.0,351.2566533,84.26933131,-99999.0,'11111222,11111222,99999999' 
TABS,ioos:station:wmo:42045:1,1999-08-04T06:30:00Z,26.2168,-96.4998,2.0,352.1638883,83.02532686,-99999.0,'11111222,11111222,99999999' 
TABS,ioos:station:wmo:42045:1,1999-08-04T07:00:00Z,26.2168,-96.4998,2.0,3.092094993,85.65468639,-99999.0,'11111222,11111222,99999999' 
TABS,ioos:station:wmo:42045:1,1999-08-04T07:30:00Z,26.2168,-96.4998,2.0,11.32754368,90.26833886,-99999.0,'11111222,11111222,99999999' 
TABS,ioos:station:wmo:42045:1,1999-08-04T08:00:00Z,26.2168,-96.4998,2.0,12.34448125,90.60472946,-99999.0,'11111222,11111222,99999999' 
TABS,ioos:station:wmo:42045:1,1999-08-04T08:30:00Z,26.2168,-96.4998,2.0,16.30941531,90.19963304,-99999.0,'11111222,11111222,99999999' 
TABS,ioos:station:wmo:42045:1,1999-08-04T09:00:00Z,26.2168,-96.4998,2.0,15.39589871,91.49321396,-99999.0,'11111222,11111222,99999999' 
TABS,ioos:station:wmo:42045:1,1999-08-04T09:30:00Z,26.2168,-96.4998,2.0,18.87827368,91.1743544,-99999.0,'11111222,11111222,99999999' 
TABS,ioos:station:wmo:42045:1,1999-08-04T10:00:00Z,26.2168,-96.4998,2.0,19.39840172,89.72333531,-99999.0,'11111222,11111222,99999999' 
TABS,ioos:station:wmo:42045:1,1999-08-04T10:30:00Z,26.2168,-96.4998,2.0,18.19602573,90.1794572,-99999.0,'11111222,11111222,99999999' 
TABS,ioos:station:wmo:42045:1,1999-08-04T11:00:00Z,26.2168,-96.4998,2.0,18.970949,90.28381306,-99999.0,'11111222,11111222,99999999' 
TABS,ioos:station:wmo:42045:1,1999-08-04T11:30:00Z,26.2168,-96.4998,2.0,23.59952933,87.47585953,-99999.0,'11111222,11111222,99999999' 
TABS,ioos:station:wmo:42045:1,1999-08-04T12:00:00Z,26.2168,-96.4998,2.0,24.84075417,86.19473592,-99999.0,'11111222,11111222,99999999' 
TABS,ioos:station:wmo:42045:1,1999-08-04T12:30:00Z,26.2168,-96.4998,2.0,25.87925951,83.30397409,-99999.0,'11111222,11111222,99999999' 
TABS,ioos:station:wmo:42045:1,1999-08-04T13:00:00Z,26.2168,-96.4998,2.0,28.29994658,81.39887591,-99999.0,'11111222,11111222,99999999' 
TABS,ioos:station:wmo:42045:1,1999-08-04T13:30:00Z,26.2168,-96.4998,2.0,29.54561406,79.47449717,-99999.0,'11111222,11111222,99999999' 
TABS,ioos:station:wmo:42045:1,1999-08-04T14:00:00Z,26.2168,-96.4998,2.0,30.01908613,76.23634107,-99999.0,'11111222,11111222,99999999' 
TABS,ioos:station:wmo:42045:1,1999-08-04T14:30:00Z,26.2168,-96.4998,2.0,30.78386173,74.22838406,-99999.0,'11111222,11111222,99999999' 
TABS,ioos:station:wmo:42045:1,1999-08-04T15:00:00Z,26.2168,-96.4998,2.0,32.00718068,73.09109385,-99999.0,'11111222,11111222,99999999' 
TABS,ioos:station:wmo:42045:1,1999-08-04T15:30:00Z,26.2168,-96.4998,2.0,36.1256311,66.96565164,-99999.0,'11111222,11111222,99999999' 
TABS,ioos:station:wmo:42045:1,1999-08-04T16:00:00Z,26.2168,-96.4998,2.0,19.04545778,48.38875593,-99999.0,'11111222,11111222,99999999' 